Weather History for KFFO - March, 2014

Change the Weather History Date:

Sunday, March 23, 2014

  Actual Average (KDAY) Record (KDAY)
Temperature  
Mean Temperature 31 °F 43 °F  
Max Temperature 37 °F 53 °F 83 °F (1907)
Min Temperature 23 °F 33 °F 8 °F (1906)
Degree Days  
Heating Degree Days 34 22  
Month to date heating degree days 601  
Since 1 July heating degree days 4876  
Cooling Degree Days 0 0  
Month to date cooling degree days 0  
Year to date cooling degree days 0  
Moisture  
Dew Point 14 °F    
Average Humidity 50    
Maximum Humidity 75    
Minimum Humidity 35    
Precipitation  
Precipitation 0.00 in 0.11 in 1.86 in (2007)
Month to date precipitation 2.35  
Year to date precipitation 7.30  
Snow  
Snow 0.00 in 0.10 in 2.70 in (1974)
Month to date snowfall 2.9  
Since 1 July snowfall 22.2  
Snow Depth -    
Sea Level Pressure  
Sea Level Pressure 30.29 in    
Wind  
Wind Speed 10 mph (NNW)    
Max Wind Speed 17 mph    
Max Gust Speed 24 mph    
Visibility 10 miles    
Events      
T = Trace of Precipitation, MM = Missing Value Source: NWS Daily Summary

Daily Weather History Graph

Daily Weather History Graph

Search for Another Location

Airport or City:

Trip Planner

Search our weather history database for the weather conditions in past years. The results will help you decide how hot, cold, wet, or windy it might be!

Date:

Astronomy

Mar. 23, 2014 Rise Set
Actual Time 7:34 AM EDT 7:51 PM EDT
Civil Twilight 7:07 AM EDT 8:18 PM EDT
Nautical Twilight 6:36 AM EDT 8:50 PM EDT
Astronomical Twilight 6:03 AM EDT 9:22 PM EDT
Moon 2:06 AM EDT (3/23) 12:15 PM EDT (3/23)
Length of Visible Light 13h 10m
Length of Day
12h 16m
Waning Gibbous, 55% of the Moon is Illuminated
Mar 23
Waning Gibbous
Mar 23
Last Quarter
Mar 30
New
Apr 7
First Quarter
Apr 15
Full

Hourly Weather History & Observations

Time (EDT) Temp. Windchill Dew Point Humidity Pressure Visibility Wind Dir Wind Speed Gust Speed Precip Events Conditions
12:58 AM 37.0 °F 34.5 °F 28.6 °F 71% 30.21 in 10.0 mi NW 3.5 mph - N/A   Clear
1:58 AM 36.9 °F 33.1 °F 27.9 °F 70% 30.22 in 10.0 mi NNW 4.6 mph - N/A   Clear
2:58 AM 35.6 °F 28.6 °F 27.7 °F 73% 30.22 in 10.0 mi NNW 9.2 mph - N/A   Mostly Cloudy
3:18 AM 35.6 °F 27.1 °F 26.6 °F 70% 30.19 in 10.0 mi NNW 12.7 mph - N/A   Overcast
3:58 AM 34.2 °F 26.2 °F 24.1 °F 67% 30.22 in 10.0 mi NNW 10.4 mph - N/A   Overcast
4:18 AM 32.0 °F 21.6 °F 24.8 °F 75% 30.20 in 10.0 mi NNW 15.0 mph - N/A   Overcast
4:58 AM 32.7 °F 23.4 °F 22.3 °F 65% 30.24 in 10.0 mi NNW 12.7 mph - N/A   Overcast
5:58 AM 31.6 °F 22.1 °F 22.3 °F 68% 30.24 in 10.0 mi North 12.7 mph - N/A   Scattered Clouds
6:58 AM 30.6 °F 19.8 °F 20.3 °F 66% 30.27 in 10.0 mi North 15.0 mph - N/A   Overcast
7:58 AM 28.8 °F 18.4 °F 15.4 °F 58% 30.29 in 10.0 mi North 12.7 mph - N/A   Overcast
8:58 AM 28.0 °F 17.5 °F 13.8 °F 55% 30.31 in 10.0 mi North 12.7 mph 17.3 mph N/A   Overcast
9:58 AM 29.1 °F 17.9 °F 10.6 °F 46% 30.32 in 10.0 mi NNE 15.0 mph - N/A   Overcast
10:58 AM 30.2 °F 18.9 °F 10.0 °F 43% 30.34 in 10.0 mi NNE 16.1 mph - N/A   Overcast
11:10 AM 32.0 °F 22.1 °F 8.6 °F 38% 30.31 in 10.0 mi NNW 13.8 mph 19.6 mph N/A   Overcast
11:23 AM 30.2 °F 19.3 °F 8.6 °F 40% 30.31 in 10.0 mi NNW 15.0 mph - N/A   Overcast
11:58 AM 30.7 °F 20.9 °F 12.2 °F 46% 30.35 in 10.0 mi NNE 12.7 mph - N/A   Overcast
12:32 PM 32.0 °F 21.2 °F 10.4 °F 41% 30.30 in 10.0 mi NNW 16.1 mph - N/A   Overcast
12:58 PM 30.9 °F 21.2 °F 9.9 °F 41% 30.33 in 10.0 mi North 12.7 mph - N/A   Mostly Cloudy
1:06 PM 32.0 °F 22.1 °F 10.4 °F 41% 30.30 in 10.0 mi NNW 13.8 mph - N/A   Mostly Cloudy
1:58 PM 32.9 °F 25.3 °F 9.9 °F 38% 30.33 in 10.0 mi North 9.2 mph 20.7 mph N/A   Mostly Cloudy
2:00 PM 32.0 °F 21.6 °F 10.4 °F 41% 30.29 in 10.0 mi North 15.0 mph 19.6 mph N/A   Mostly Cloudy
2:14 PM 32.0 °F 20.8 °F 10.4 °F 41% 30.29 in 10.0 mi NW 17.3 mph - N/A   Mostly Cloudy
2:50 PM 32.0 °F 21.6 °F 10.4 °F 41% 30.28 in 10.0 mi WNW 15.0 mph 23.0 mph N/A   Scattered Clouds
2:58 PM 33.3 °F 24.1 °F 9.9 °F 38% 30.32 in 10.0 mi NW 12.7 mph 21.9 mph N/A   Partly Cloudy
3:13 PM 32.0 °F 22.1 °F 8.6 °F 38% 30.28 in 10.0 mi NW 13.8 mph 20.7 mph N/A   Partly Cloudy
3:58 PM 35.1 °F 25.5 °F 10.9 °F 37% 30.30 in 10.0 mi WNW 15.0 mph - N/A   Mostly Cloudy
4:58 PM 34.5 °F 25.3 °F 9.9 °F 36% 30.31 in 10.0 mi NNW 13.8 mph - N/A   Clear
5:23 PM 33.8 °F 23.5 °F 8.6 °F 35% 30.28 in 10.0 mi NNW 16.1 mph 24.2 mph N/A   Clear
5:58 PM 33.1 °F 23.9 °F 8.6 °F 36% 30.33 in 10.0 mi NNW 12.7 mph - N/A   Scattered Clouds
6:58 PM 31.8 °F 23.3 °F 9.1 °F 39% 30.33 in 10.0 mi North 10.4 mph - N/A   Partly Cloudy
7:58 PM 29.8 °F 23.9 °F 10.0 °F 44% 30.34 in 10.0 mi NNW 5.8 mph - N/A   Clear
8:58 PM 28.6 °F 22.4 °F 11.7 °F 49% 30.35 in 10.0 mi North 5.8 mph - N/A   Partly Cloudy
9:58 PM 27.1 °F 21.8 °F 12.7 °F 55% 30.36 in 10.0 mi North 4.6 mph - N/A   Clear
10:58 PM 25.3 °F - 12.9 °F 59% 30.37 in 10.0 mi NNW 2.3 mph - N/A   Clear
11:58 PM 23.4 °F - 13.5 °F 66% 30.37 in 10.0 mi SSW 2.3 mph - N/A   Clear